Time_in_sec,gx,gy,gz
1314364949.56544495,0.15220603,-0.01091829,-0.98828848
1314364949.61257052,0.15206125,-0.01109431,-0.98830880
1314364949.66457248,0.15204746,-0.01117065,-0.98831007
1314364949.71343231,0.15215259,-0.01104761,-0.98829527
1314364949.76456904,0.15223850,-0.01091592,-0.98828350
1314364949.81363654,0.15242745,-0.01096840,-0.98825380
1314364949.86550450,0.15252404,-0.01105084,-0.98823797
1314364949.91353655,0.15272632,-0.01084443,-0.98820902
1314364949.96452904,0.15249676,-0.01075452,-0.98824545
1314364950.01347065,0.15230913,-0.01064307,-0.98827560
1314364950.06463051,0.15245279,-0.01053755,-0.98825458
1314364950.11363769,0.15227634,-0.01049674,-0.98828221
1314364950.16156912,0.15218223,-0.01046630,-0.98829703
1314364950.21262479,0.15229677,-0.01061130,-0.98827784
1314364950.26148248,0.15218484,-0.01034148,-0.98829795
1314364950.31255174,0.15197013,-0.01038449,-0.98833053
1314364950.36161971,0.15221150,-0.01026019,-0.98829469
1314364950.41258240,0.15204530,-0.01050253,-0.98831772
1314364950.46564031,0.15198437,-0.01043702,-0.98832779
1314364950.51355410,0.15217908,-0.01035067,-0.98829874
1314364950.56552267,0.15220404,-0.01041562,-0.98829421
1314364950.61263800,0.15214919,-0.01030556,-0.98830381
1314364950.66150236,0.15209946,-0.01047309,-0.98830970
1314364950.71268034,0.15199508,-0.01049254,-0.98832555
1314364950.76157451,0.15213032,-0.01060318,-0.98830357
1314364950.81258750,0.15259992,-0.01068151,-0.98823032
1314364950.86455727,0.15239446,-0.01030042,-0.98826607
1314364950.91403151,0.15226980,-0.01025582,-0.98828575
1314364950.96148896,0.15233816,-0.01046043,-0.98827307
1314364951.01249504,0.15224304,-0.01010549,-0.98829142
1314364951.06149626,0.15222311,-0.01029175,-0.98829257
1314364951.11369395,0.15222137,-0.01018770,-0.98829392
1314364951.16452050,0.15238951,-0.01024764,-0.98826738
1314364951.21264482,0.15242404,-0.01023976,-0.98826214
1314364951.26553917,0.15251690,-0.01021247,-0.98824810
1314364951.31347442,0.15269774,-0.01044170,-0.98821778
1314364951.36151147,0.15291204,-0.01041557,-0.98818491
1314364951.41268158,0.15299047,-0.01076637,-0.98816901
1314364951.46575880,0.15303189,-0.01072991,-0.98816300
1314364951.51425481,0.15290421,-0.01059712,-0.98818420
1314364951.56553054,0.15305163,-0.01089653,-0.98815812
1314364951.61365771,0.15268266,-0.01088768,-0.98821529
1314364951.66551661,0.15262300,-0.01121131,-0.98822089
1314364951.71352720,0.15261576,-0.01117845,-0.98822238
1314364951.77251554,0.15234863,-0.01132144,-0.98826197
1314364951.81258845,0.15253149,-0.01133150,-0.98823365
1314364951.86155081,0.15262510,-0.01118213,-0.98822090
1314364951.91258836,0.15259344,-0.01136617,-0.98822369
1314364951.96454668,0.15246723,-0.01139922,-0.98824278
1314364952.01249909,0.15261575,-0.01144899,-0.98821928
1314364952.06462383,0.15261966,-0.01142082,-0.98821901
1314364952.11347246,0.15267029,-0.01164326,-0.98820859
1314364952.16461444,0.15277486,-0.01185486,-0.98818991
1314364952.21254373,0.15275921,-0.01200886,-0.98819047
1314364952.26147985,0.15311152,-0.01206873,-0.98813522
1314364952.31350899,0.15306281,-0.01231304,-0.98813975
1314364952.36149883,0.15311693,-0.01215181,-0.98813336
1314364952.41247344,0.15317261,-0.01221091,-0.98812400
1314364952.46456981,0.15304496,-0.01191692,-0.98814737
1314364952.51344919,0.15310535,-0.01219874,-0.98813458
1314364952.56564522,0.15308225,-0.01196624,-0.98814100
1314364952.61258578,0.15323426,-0.01189331,-0.98811832
1314364952.66681862,0.15336814,-0.01213085,-0.98809466
1314364952.71246028,0.15315881,-0.01205136,-0.98812810
1314364952.76554942,0.15343835,-0.01215553,-0.98808346
1314364952.81350255,0.15342377,-0.01192327,-0.98808855
1314364952.86850953,0.15333001,-0.01187391,-0.98810370
1314364952.91354227,0.15352410,-0.01160259,-0.98807678
1314364952.96562409,0.15354539,-0.01138621,-0.98807599
1314364953.01345801,0.15350614,-0.01167098,-0.98807877
1314364953.06489754,0.15336693,-0.01175041,-0.98809944
1314364953.11346579,0.15367409,-0.01161194,-0.98805336
1314364953.16826534,0.15370514,-0.01151596,-0.98804965
1314364953.21347308,0.15365370,-0.01166541,-0.98805590
1314364953.26561809,0.15360794,-0.01205243,-0.98805837
1314364953.31344986,0.15362375,-0.01211346,-0.98805516
1314364953.36852312,0.15345578,-0.01217385,-0.98808052
1314364953.41355729,0.15327251,-0.01198799,-0.98811124
1314364953.46548033,0.15298486,-0.01195009,-0.98815628
1314364953.51255512,0.15313660,-0.01194218,-0.98813287
1314364953.56549811,0.15308500,-0.01173147,-0.98814339
1314364953.61320972,0.15299396,-0.01175533,-0.98815720
1314364953.66556621,0.15297353,-0.01162340,-0.98816193
1314364953.71346474,0.15327640,-0.01139203,-0.98811769
1314364953.76457477,0.15338580,-0.01115361,-0.98810343
1314364953.81259322,0.15355169,-0.01134574,-0.98807548
1314364953.86640763,0.15352822,-0.01125915,-0.98808012
1314364953.91546369,0.15367770,-0.01116811,-0.98805791
1314364953.96851087,0.15386155,-0.01129079,-0.98802790
1314364954.01344585,0.15407216,-0.01132635,-0.98799468
1314364954.06548929,0.15416390,-0.01139944,-0.98797953
1314364954.11352277,0.15447149,-0.01127828,-0.98793287
1314364954.16542459,0.15470538,-0.01096105,-0.98789984
1314364954.21386099,0.15478478,-0.01101618,-0.98788679
1314364954.26557136,0.15486884,-0.01067276,-0.98787739
1314364954.31254649,0.15506581,-0.01068755,-0.98784633
1314364954.36153054,0.15522502,-0.01054469,-0.98782286
1314364954.41343570,0.15533387,-0.01064063,-0.98780472
1314364954.46453118,0.15540762,-0.01061446,-0.98779340
1314364954.51346517,0.15562297,-0.01066039,-0.98775900
1314364954.56541467,0.15553210,-0.01067707,-0.98777313
1314364954.61256909,0.15577911,-0.01038875,-0.98773728
1314364954.66539502,0.15575581,-0.01057228,-0.98773901
1314364954.71254373,0.15588617,-0.01055247,-0.98771866
1314364954.76850629,0.15582026,-0.01046840,-0.98772995
1314364954.81345391,0.15582317,-0.01077501,-0.98772620
1314364954.86550379,0.15554183,-0.01077840,-0.98777050
1314364954.91339111,0.15563765,-0.01061899,-0.98775713
1314364954.96556163,0.15568858,-0.01072655,-0.98774795
1314364955.01249290,0.15544125,-0.01062383,-0.98778801
1314364955.06146860,0.15568753,-0.01085326,-0.98774673
1314364955.11421275,0.15552335,-0.01079806,-0.98777320
1314364955.16547108,0.15579793,-0.01100945,-0.98772759
1314364955.21348023,0.15558172,-0.01083209,-0.98776363
1314364955.26451683,0.15547517,-0.01105484,-0.98777794
1314364955.31351519,0.15556187,-0.01089328,-0.98776609
1314364955.36453414,0.15581951,-0.01094840,-0.98772487
1314364955.41255260,0.15592828,-0.01100637,-0.98770706
1314364955.46947241,0.15585873,-0.01087015,-0.98771954
1314364955.51250529,0.15590190,-0.01095650,-0.98771178
1314364955.56549430,0.15587025,-0.01106366,-0.98771558
1314364955.61345172,0.15562308,-0.01108301,-0.98775433
1314364955.66552377,0.15552566,-0.01110157,-0.98776947
1314364955.71349597,0.15556064,-0.01102835,-0.98776478
1314364955.76549053,0.15540814,-0.01114443,-0.98778748
1314364955.81264710,0.15548647,-0.01118174,-0.98777474
1314364955.86294222,0.15572735,-0.01137194,-0.98773462
1314364955.91312194,0.15562495,-0.01152835,-0.98774894
1314364955.96456861,0.15567174,-0.01123819,-0.98774491
1314364956.02533174,0.15563289,-0.01126472,-0.98775073
1314364956.06534266,0.15540349,-0.01107232,-0.98778903
1314364956.11346221,0.15535578,-0.01087896,-0.98779868
1314364956.16548944,0.15536607,-0.01100338,-0.98779568
1314364956.21248078,0.15530876,-0.01084728,-0.98780642
1314364956.26546597,0.15533884,-0.01088415,-0.98780129
1314364956.31570005,0.15525663,-0.01084527,-0.98781464
1314364956.36816311,0.15545657,-0.01111381,-0.98778021
1314364956.41305137,0.15543051,-0.01103941,-0.98778514
1314364956.46452427,0.15549204,-0.01076505,-0.98777849
1314364956.51347303,0.15548591,-0.01084169,-0.98777861
1314364956.56853890,0.15527785,-0.01064279,-0.98781350
1314364956.61334395,0.15543780,-0.01076270,-0.98778705
1314364956.66761303,0.15551021,-0.01086133,-0.98777457
1314364956.71259856,0.15550960,-0.01123241,-0.98777052
1314364956.76551104,0.15561343,-0.01130364,-0.98775335
1314364956.81341815,0.15566035,-0.01121999,-0.98774692
1314364956.86451864,0.15572959,-0.01142294,-0.98773367
1314364956.91329098,0.15556239,-0.01118339,-0.98776276
1314364956.96533775,0.15558496,-0.01120987,-0.98775891
1314364957.01365256,0.15576218,-0.01110091,-0.98773221
1314364957.06547356,0.15558449,-0.01106426,-0.98776062
1314364957.11375093,0.15560061,-0.01112968,-0.98775735
1314364957.16456056,0.15538980,-0.01112852,-0.98779055
1314364957.22544408,0.15554224,-0.01127109,-0.98776494
1314364957.26553321,0.15552231,-0.01125366,-0.98776828
1314364957.31345892,0.15554570,-0.01116209,-0.98776563
1314364957.36448359,0.15547923,-0.01123713,-0.98777525
1314364957.41344905,0.15539689,-0.01131664,-0.98778730
1314364957.46547079,0.15547257,-0.01150706,-0.98777319
1314364957.51353168,0.15560863,-0.01168808,-0.98774964
1314364957.56309772,0.15548313,-0.01165205,-0.98776982
1314364957.61330009,0.15552695,-0.01170924,-0.98776225
1314364957.66453266,0.15540346,-0.01159485,-0.98778304
1314364957.71347308,0.15557675,-0.01169814,-0.98775454
1314364957.76451135,0.15528288,-0.01161145,-0.98780180
1314364957.81258774,0.15526920,-0.01175844,-0.98780221
1314364957.86556530,0.15517785,-0.01186919,-0.98781525
1314364957.91332626,0.15514728,-0.01169706,-0.98782210
1314364957.96547723,0.15519005,-0.01190491,-0.98781290
1314364958.01336741,0.15519319,-0.01166762,-0.98781524
1314364958.06404686,0.15537144,-0.01182841,-0.98778530
1314364958.11344266,0.15545363,-0.01167285,-0.98777422
1314364958.16538167,0.15562582,-0.01166640,-0.98774718
1314364958.21252918,0.15596824,-0.01170999,-0.98769266
1314364958.26549840,0.15609728,-0.01153548,-0.98767433
1314364958.31248593,0.15611053,-0.01154372,-0.98767213
1314364958.36549020,0.15629621,-0.01139818,-0.98764446
1314364958.41349792,0.15641121,-0.01106444,-0.98763005
1314364958.46463060,0.15623146,-0.01113747,-0.98765768
1314364958.51349235,0.15618814,-0.01106649,-0.98766533
1314364958.56458592,0.15614149,-0.01122250,-0.98767094
1314364958.61270046,0.15610995,-0.01120456,-0.98767613
1314364958.66586828,0.15629269,-0.01112916,-0.98764808
1314364958.71259522,0.15622808,-0.01109045,-0.98765874
1314364958.76453900,0.15632836,-0.01095267,-0.98764441
1314364958.81323528,0.15624531,-0.01121939,-0.98765456
1314364958.86453986,0.15628039,-0.01130616,-0.98764802
1314364958.91347122,0.15618025,-0.01144012,-0.98766232
1314364958.96556520,0.15630593,-0.01165574,-0.98763991
1314364959.01338720,0.15623756,-0.01155440,-0.98765192
1314364959.06562948,0.15633998,-0.01150649,-0.98763627
1314364959.11338115,0.15616939,-0.01127414,-0.98766594
1314364959.16452622,0.15618034,-0.01135210,-0.98766332
1314364959.21351790,0.15608508,-0.01121986,-0.98767989
1314364959.26459026,0.15633112,-0.01115551,-0.98764170
1314364959.32545829,0.15637830,-0.01141812,-0.98763123
1314364959.36459398,0.15623100,-0.01145719,-0.98765409
1314364959.41337705,0.15643097,-0.01144666,-0.98762256
1314364959.46546936,0.15652351,-0.01147676,-0.98760755
1314364959.51256704,0.15665776,-0.01153397,-0.98758560
1314364959.56548262,0.15665179,-0.01166572,-0.98758500
1314364959.62452984,0.15667345,-0.01153777,-0.98758306
1314364959.66553473,0.15641301,-0.01150219,-0.98762476
1314364959.71346521,0.15660100,-0.01150871,-0.98759489
1314364959.76523757,0.15641767,-0.01159595,-0.98762293
1314364959.81336379,0.15662498,-0.01147875,-0.98759144
1314364959.87350678,0.15686900,-0.01122818,-0.98755559
1314364959.91659474,0.15704694,-0.01113587,-0.98752835
1314364959.96546960,0.15672330,-0.01116978,-0.98757939
1314364960.01349854,0.15656709,-0.01127421,-0.98760298
1314364960.06435633,0.15646572,-0.01122355,-0.98761962
1314364960.11319280,0.15640736,-0.01103186,-0.98763102
1314364960.16459632,0.15649836,-0.01136089,-0.98761288
1314364960.21322584,0.15659375,-0.01129732,-0.98759848
1314364960.26549244,0.15641897,-0.01115137,-0.98762784
1314364960.31349206,0.15650269,-0.01124878,-0.98761347
1314364960.36762857,0.15665192,-0.01120038,-0.98759036
1314364960.41246533,0.15661733,-0.01120126,-0.98759584
1314364960.46550274,0.15654901,-0.01103223,-0.98760858
1314364960.51344371,0.15653356,-0.01089037,-0.98761260
1314364960.56547046,0.15668137,-0.01073436,-0.98759087
1314364960.61295223,0.15645706,-0.01087604,-0.98762488
1314364960.66553593,0.15645559,-0.01122656,-0.98762119
1314364960.71351719,0.15640799,-0.01123662,-0.98762861
1314364960.76549172,0.15661452,-0.01121047,-0.98759618
1314364960.82515407,0.15658799,-0.01114272,-0.98760115
1314364960.86553073,0.15688008,-0.01115609,-0.98755465
1314364960.91346717,0.15695896,-0.01116850,-0.98754197
1314364960.96518993,0.15696402,-0.01109734,-0.98754197
1314364961.01268864,0.15685219,-0.01099970,-0.98756083
1314364961.06551003,0.15679200,-0.01085773,-0.98757196
1314364961.11318398,0.15681405,-0.01061270,-0.98757112
1314364961.16546369,0.15660746,-0.01078402,-0.98760205
1314364961.21348763,0.15693908,-0.01058624,-0.98755155
1314364961.26554608,0.15724903,-0.01079944,-0.98749993
1314364961.31365204,0.15749503,-0.01048096,-0.98746416
1314364961.36448431,0.15762062,-0.01057929,-0.98744307
1314364961.41318345,0.15751876,-0.01066668,-0.98745839
1314364961.46546769,0.15763578,-0.01060458,-0.98744038
1314364961.51316357,0.15748496,-0.01046399,-0.98746595
1314364961.56550097,0.15745933,-0.01043637,-0.98747032
1314364961.61348343,0.15751324,-0.01045750,-0.98746150
1314364961.66552639,0.15772174,-0.01024691,-0.98743043
1314364961.71345115,0.15737126,-0.01042034,-0.98748453
1314364961.76518059,0.15738084,-0.01042138,-0.98748299
1314364961.81264806,0.15740088,-0.01022744,-0.98748183
1314364961.86946321,0.15726652,-0.00999737,-0.98750559
1314364961.91328216,0.15714957,-0.00997786,-0.98752441
1314364961.96850014,0.15709936,-0.01015691,-0.98753057
1314364962.02463770,0.15703242,-0.01004258,-0.98754239
1314364962.06468558,0.15700363,-0.00990779,-0.98754833
1314364962.11346602,0.15692387,-0.00994766,-0.98756060
1314364962.16450644,0.15686102,-0.00995131,-0.98757055
1314364962.21270108,0.15688759,-0.00998118,-0.98756603
1314364962.26553178,0.15669197,-0.01004332,-0.98759645
1314364962.31267381,0.15652838,-0.01016178,-0.98762119
1314364962.36551356,0.15674823,-0.01024334,-0.98758547
1314364962.42652440,0.15652105,-0.00999900,-0.98762401
1314364962.46527767,0.15676739,-0.01000428,-0.98758488
1314364962.51354384,0.15681234,-0.01015643,-0.98757619
1314364962.56460118,0.15702014,-0.01036237,-0.98754104
1314364962.61250997,0.15698358,-0.01024898,-0.98754803
1314364962.66315222,0.15686430,-0.01036692,-0.98756575
1314364962.71256614,0.15684431,-0.01032630,-0.98756935
1314364962.76550436,0.15699163,-0.01053107,-0.98754378
1314364962.81261563,0.15711086,-0.01049337,-0.98752522
1314364962.86859035,0.15713522,-0.01045828,-0.98752172
1314364962.91349149,0.15720596,-0.01087744,-0.98750593
1314364962.96459365,0.15711240,-0.01104295,-0.98751899
1314364963.01349425,0.15693142,-0.01104920,-0.98754769
1314364963.06912470,0.15706045,-0.01100267,-0.98752770
1314364963.11266041,0.15696886,-0.01090270,-0.98754337
1314364963.16549492,0.15708770,-0.01098030,-0.98752361
1314364963.21281147,0.15691966,-0.01116397,-0.98754827
1314364963.26523924,0.15677986,-0.01144560,-0.98756725
1314364963.31347728,0.15665051,-0.01154013,-0.98758668
1314364963.36460376,0.15683382,-0.01123022,-0.98756115
1314364963.41317058,0.15665177,-0.01153900,-0.98758649
1314364963.47159934,0.15668749,-0.01162006,-0.98757987
1314364963.51259255,0.15690058,-0.01158546,-0.98754645
1314364963.56555748,0.15665588,-0.01167881,-0.98758419
1314364963.61309671,0.15678535,-0.01165830,-0.98756389
1314364963.66507888,0.15677020,-0.01158371,-0.98756717
1314364963.71348882,0.15696423,-0.01160308,-0.98753613
1314364963.76461840,0.15681546,-0.01154833,-0.98756040
1314364963.81262755,0.15711672,-0.01186552,-0.98750876
1314364963.86550260,0.15714870,-0.01183813,-0.98750400
1314364963.91361666,0.15682176,-0.01219735,-0.98755160
1314364963.96619034,0.15664504,-0.01226347,-0.98757883
1314364964.01253891,0.15676127,-0.01247653,-0.98755771
1314364964.06519198,0.15671179,-0.01257932,-0.98756426
1314364964.11345625,0.15685443,-0.01262981,-0.98754097
1314364964.16459060,0.15673898,-0.01300439,-0.98755444
1314364964.21259665,0.15684043,-0.01291122,-0.98753956
1314364964.26334667,0.15671044,-0.01317490,-0.98755671
1314364964.31351256,0.15686957,-0.01312017,-0.98753218
1314364964.36549878,0.15689060,-0.01315972,-0.98752831
1314364964.42450953,0.15686928,-0.01329130,-0.98752993
1314364964.46459913,0.15737569,-0.01330986,-0.98744911
1314364964.51344967,0.15721986,-0.01362282,-0.98746966
1314364964.56553102,0.15732550,-0.01353940,-0.98745398
1314364964.61371279,0.15735157,-0.01357372,-0.98744936
1314364964.66547656,0.15671507,-0.01372643,-0.98754847
1314364964.71362305,0.15694274,-0.01329760,-0.98751818
1314364964.76549792,0.15705779,-0.01359311,-0.98749586
1314364964.81349421,0.15699614,-0.01331609,-0.98750944
1314364964.86564612,0.15703041,-0.01332706,-0.98750384
1314364964.91348577,0.15701923,-0.01335781,-0.98750521
1314364964.96569157,0.15688123,-0.01315707,-0.98752983
1314364965.01317644,0.15687754,-0.01300451,-0.98753244
1314364965.06551099,0.15687033,-0.01278809,-0.98753641
1314364965.11259198,0.15695392,-0.01285256,-0.98752229
1314364965.16605902,0.15702777,-0.01290883,-0.98750982
1314364965.21255732,0.15688148,-0.01326215,-0.98752839
1314364965.26463079,0.15668577,-0.01318295,-0.98756052
1314364965.31345463,0.15656611,-0.01316146,-0.98757978
1314364965.36454105,0.15663982,-0.01304517,-0.98756964
1314364965.41259193,0.15676343,-0.01281249,-0.98755307
1314364965.46260285,0.15706730,-0.01279158,-0.98750506
1314364965.51256561,0.15695203,-0.01291403,-0.98752179
1314364965.56551790,0.15697232,-0.01275542,-0.98752063
1314364965.61253715,0.15678277,-0.01299705,-0.98754759
1314364965.66553617,0.15679370,-0.01289824,-0.98754715
1314364965.71346378,0.15684349,-0.01279631,-0.98754057
1314364965.76555443,0.15676316,-0.01279840,-0.98755330
1314364965.81350541,0.15682165,-0.01287913,-0.98754296
1314364965.86549211,0.15671910,-0.01280712,-0.98756018
1314364965.91360617,0.15645724,-0.01273082,-0.98760268
1314364965.96548128,0.15658628,-0.01270374,-0.98758258
1314364966.02561975,0.15671466,-0.01281271,-0.98756081
1314364966.06563807,0.15666812,-0.01260492,-0.98757087
1314364966.11350369,0.15676997,-0.01263649,-0.98755430
1314364966.16448402,0.15695867,-0.01255814,-0.98752533
1314364966.21302223,0.15677360,-0.01266286,-0.98755339
1314364966.26546741,0.15688618,-0.01238220,-0.98753907
1314364966.31360531,0.15691234,-0.01260663,-0.98753207
1314364966.36550856,0.15694034,-0.01266101,-0.98752693
1314364966.41298747,0.15695805,-0.01281531,-0.98752212
1314364966.46467137,0.15684809,-0.01275938,-0.98754032
1314364966.51346374,0.15689514,-0.01254730,-0.98753556
1314364966.56487679,0.15664634,-0.01275983,-0.98757233
1314364966.61268067,0.15660221,-0.01282358,-0.98757850
1314364966.66483378,0.15674150,-0.01251161,-0.98756041
1314364966.71263456,0.15690237,-0.01256547,-0.98753418
1314364966.76549149,0.15708675,-0.01234789,-0.98750761
1314364966.81297660,0.15722650,-0.01249753,-0.98748349
1314364966.86459112,0.15729083,-0.01264871,-0.98747132
1314364966.91345119,0.15740954,-0.01278954,-0.98745059
1314364966.96555138,0.15734995,-0.01302769,-0.98745697
1314364967.01268649,0.15758340,-0.01259557,-0.98742535
1314364967.06548190,0.15771696,-0.01267206,-0.98740305
1314364967.11267900,0.15770985,-0.01272777,-0.98740347
1314364967.16551018,0.15793897,-0.01250655,-0.98736967
1314364967.21304512,0.15774601,-0.01266645,-0.98739848
1314364967.26453900,0.15767628,-0.01251955,-0.98741149
1314364967.31347418,0.15809746,-0.01258260,-0.98734334
1314364967.36547685,0.15834821,-0.01269693,-0.98730169
1314364967.41346002,0.15823253,-0.01279603,-0.98731896
